User: anonymous   Login
Location: Azul
(36.7830°S, 59.8500°W)
Time: 10:21:19
(UTC-03:00)
Language:

CUTE 1.7 + AOD 2 - Orbit

View from above orbital plane
View from above orbital plane
View from above satellite
View from above satellite

Ground track
Ground track

The orbit data is extracted from the following two-line orbital elements,

1 32785U 08021C   21295.15879870  .00000576  00000-0  67063-4 0  9994
2 32785  97.6266 269.1878 0011709 308.1605  51.8557 14.88849224731096
Epoch (UTC): 22 October 2021 03:48:40
Eccentricity: 0.0011709
inclination: 97.6266°
perigee height: 593 km
apogee height: 610 km
right ascension of ascending node: 269.1878°
argument of perigee: 308.1605°
revolutions per day: 14.88849224
mean anomaly at epoch: 51.8557°
orbit number at epoch: 73109

The dashed part of the orbit path shows where the satellite is in the earth's shadow,  

DLR